Portada
METAR-TAF:

METAR-TAF

Aeroports :

Aeroport de Sania Ramel

Tetuan, Marroc

latitud: 35-35N, longitud: 005-20W, altitud: 10 m

Observació

L'informe es va fer fa 18 minuts, a les 18:00 UTC
Vent 10 kt del Oest
Temperatura 21°C
Humitat 64%
Pressió 1014 hPa
Visibilitat 10 km o més
Cel ennuvolat a una alçada de 5000 ft

METAR: GMTN 161800Z 26010KT 9999 BKN050 21/14 Q1014 NOSIG

Hora: 19:18 (18:18 UTC)


TAF: manca

Observacions i pronòstics meteorològics de més de 4000 aeroports (METAR i TAF).

Les estacions disponibles són els punts grocs i vermells al mapa.

Posi el ratolí al punt desitjat per veure el nom de l'estació.

Feu clic per veure les observacions i els pronòstics meteorològics.

Per canviar el mapa: feu clic els botons verds amb una creu de color negre per apropar; al botó verd amb un guió per allunyar la imatge; o en les fletxes verdes per a mapes adjacents.


METAR-TAF: